Content
SEND FEEDBACK

Daily
Averages
Monthly
Summary
United States of America

BEAVER ISLAND, MICHIGAN


Home > North America > United States > Michigan
Elevation: 627 feet     Latitude: 45 43N     Longitude: 085 31W

WEATHER
 
SELECT A DAY
Number of Records: 326,511;   Date Range: 9/12/01 - 9/29/14
 
SHARE

PRINT THIS DATA

[ ← Previous Day ]
WEATHER ALMANAC - JULY 10, 2014
[ Next Day → ]
[ °C ]   °F
Weather ElementAverageHighLow
Temperature57 °F69.8 °F (4:15 pm)41.4 °F (6:15 am)
Dewpoint49 °F56.3 °F (11:15 pm)41.4 °F (3:35 am)
Humidity77.8 %100 % (12:15 am)48 % (2:15 pm)
Barometer30.16 in30.20 in (10:35 am)30.06 in (1:55 am)
Wind Speed3.3 mph9.2 mph (5:36 pm)
Weather ElementAverage
Visibility9.9 mi
Wind DirectionESE (120 °)

Weather ElementTotal
Precipitation---
Heating Degree Days9.4 (Base 65)
Growing Degree Days5.6 (Base 50)
Averaged from 69 records on July 10, 2014
WEATHER CONDITIONS BREAKOUT
WIND DIRECTION BREAKOUT
WEATHER BY HOUR - JULY 10, 2014
[ °C ]   °F
Local TimeTemperatureDewpointHumidityBarometerVisibilityWind DirectionWind SpeedGust SpeedPrecipitationEventsConditions
12:15 AM45.9 °F45.9 °F100 %30.06 in7.0 miCalmClear
12:35 AM45.9 °F45.9 °F100 %30.07 in10.0 miCalmClear
12:55 AM44.8 °F44.8 °F100 %30.07 in10.0 miCalmClear
1:15 AM45.3 °F45.3 °F100 %30.06 in10.0 miCalmClear
1:35 AM43.3 °F43.3 °F100 %30.07 in10.0 miCalmClear
1:55 AM43.7 °F43.7 °F100 %30.07 in10.0 miCalmClear
2:16 AM43.3 °F43.3 °F100 %30.08 in10.0 miCalmClear
2:35 AM43.7 °F43.7 °F100 %30.08 in10.0 miCalmClear
2:56 AM43.0 °F43.0 °F100 %30.09 in10.0 miCalmClear
3:15 AM41.7 °F41.7 °F100 %30.09 inCalm
3:35 AM42.1 °F42.1 °F100 %30.10 inCalm
4:15 AM42.6 °F42.6 °F100 %30.11 in10.0 miCalmClear
4:36 AM42.3 °F42.3 °F100 %30.11 in10.0 miCalmClear
4:55 AM41.4 °F41.4 °F100 %30.12 in10.0 miCalmClear
5:15 AM42.1 °F42.1 °F100 %30.12 in10.0 miCalmClear
5:36 AM42.1 °F42.1 °F100 %30.12 in10.0 miCalmClear
5:55 AM42.8 °F42.8 °F100 %30.13 in7.0 miCalmClear
6:15 AM42.3 °F42.3 °F100 %30.14 in10.0 miCalmClear
6:36 AM42.4 °F42.4 °F100 %30.15 in10.0 miCalmClear
6:55 AM43.0 °F43.0 °F100 %30.15 in10.0 miCalmClear
7:15 AM45.9 °F45.9 °F100 %30.15 in10.0 miCalmClear
7:36 AM49.1 °F49.1 °F100 %30.16 in10.0 miCalmClear
7:55 AM54.0 °F54.0 °F100 %30.17 in10.0 miCalmClear
8:15 AM57.2 °F56.3 °F97 %30.17 in10.0 miWSW (250°)4.6 mphClear
8:36 AM57.9 °F55.4 °F91 %30.17 in10.0 miWSW (250°)3.5 mphClear
8:55 AM59.9 °F54.7 °F83 %30.18 in10.0 miSW (230°)3.5 mphClear
9:15 AM61.7 °F53.2 °F74 %30.18 in10.0 miWest (260°)5.8 mphClear
9:36 AM61.7 °F52.9 °F73 %30.18 in10.0 miSW (230°)4.6 mphClear
9:55 AM63.7 °F52.5 °F67 %30.18 in10.0 miSW (230°)3.5 mphClear
10:15 AM63.7 °F51.6 °F65 %30.19 in10.0 miWSW (240°)4.6 mphClear
10:36 AM64.2 °F51.3 °F63 %30.19 in10.0 miSSW (210°)5.8 mphClear
10:55 AM65.1 °F50.4 °F59 %30.19 in10.0 miSW (220°)3.5 mphClear
11:15 AM66.2 °F49.6 °F55 %30.19 in10.0 miSW (230°)4.6 mphClear
11:36 AM66.4 °F49.8 °F55 %30.20 in10.0 miSW (230°)6.9 mphClear
11:55 AM66.2 °F51.3 °F59 %30.20 in10.0 miWSW (240°)6.9 mphClear
12:15 PM67.1 °F50.9 °F56 %30.20 in10.0 miWest (270°)6.9 mphClear
12:36 PM68.0 °F49.6 °F52 %30.20 in10.0 miWest (260°)8.1 mphClear
12:55 PM68.0 °F50.9 °F54 %30.20 in10.0 miWest (270°)8.1 mphClear
1:15 PM68.5 °F50.9 °F53 %30.20 in10.0 miWest (260°)9.2 mphClear
1:36 PM68.4 °F51.6 °F55 %30.20 in10.0 miWest (260°)9.2 mphClear
1:55 PM68.5 °F51.3 °F54 %30.20 in10.0 miSW (230°)9.2 mphClear
2:15 PM68.9 °F52.3 °F55 %30.20 in10.0 miSW (220°)9.2 mphClear
2:36 PM68.9 °F52.3 °F55 %30.20 in10.0 miSW (230°)8.1 mphClear
2:55 PM68.2 °F51.1 °F54 %30.20 in10.0 miSW (230°)8.1 mphClear
3:36 PM69.3 °F49.5 °F49 %30.19 in10.0 miSW (230°)8.1 mphClear
3:55 PM69.4 °F50.2 °F50 %30.19 in10.0 miWSW (250°)8.1 mphClear
4:36 PM69.3 °F50.0 °F50 %30.18 in10.0 miWSW (240°)8.1 mphClear
4:55 PM69.4 °F48.7 °F48 %30.18 in10.0 miWSW (240°)8.1 mphClear
5:15 PM69.8 °F50.2 °F50 %30.18 in10.0 miWSW (250°)9.2 mphClear
5:36 PM68.0 °F51.1 °F55 %30.18 in10.0 miWSW (240°)9.2 mphClear
5:55 PM68.7 °F52.2 °F55 %30.17 in10.0 miSW (230°)5.8 mphClear
6:15 PM68.7 °F51.1 °F53 %30.17 in10.0 miWSW (240°)8.1 mphClear
6:35 PM67.3 °F52.7 °F59 %30.17 in10.0 miWSW (250°)6.9 mphClear
6:55 PM66.0 °F53.6 °F64 %30.17 in10.0 miWest (270°)8.1 mphClear
7:15 PM65.3 °F53.4 °F65 %30.17 in10.0 miSW (230°)5.8 mphClear
7:35 PM65.3 °F52.0 °F62 %30.17 in10.0 miSSW (200°)4.6 mphClear
7:55 PM66.0 °F51.3 °F59 %30.16 in10.0 miCalmClear
8:15 PM65.7 °F51.4 °F60 %30.16 in10.0 miSSW (200°)3.5 mphClear
8:35 PM64.9 °F51.6 °F62 %30.15 in10.0 miCalmClear
8:55 PM62.8 °F53.1 °F71 %30.15 in10.0 miCalmClear
9:15 PM59.4 °F52.9 °F79 %30.15 in10.0 miCalmClear
9:35 PM56.3 °F52.5 °F87 %30.14 in10.0 miCalmClear
9:55 PM54.0 °F51.8 °F92 %30.15 in10.0 miCalmClear
10:15 PM52.7 °F50.5 °F92 %30.16 in10.0 miSSE (160°)3.5 mphClear
10:35 PM51.6 °F49.6 °F93 %30.17 in10.0 miCalmClear
10:55 PM50.4 °F49.1 °F95 %30.17 in10.0 miCalmClear
11:15 PM51.1 °F49.3 °F94 %30.17 in10.0 miCalmClear
11:35 PM49.8 °F49.1 °F97 %30.18 in10.0 miCalmClear
11:55 PM49.6 °F48.6 °F96 %30.18 in10.0 miCalmClear
Hourly data recorded from KSJX, located miles away from Beaver Island, Michigan







STORIES FROM OUR PARTNERS